Weather History for KLSB - May, 2014

Change the Weather History Date:

Tuesday, May 13, 2014

  Actual Average Record
Temperature  
Mean Temperature 56 °F -  
Max Temperature 69 °F 86 °F 82 °F (2013)
Min Temperature 42 °F 45 °F 42 °F (2014)
Degree Days  
Heating Degree Days 10    
Growing Degree Days 6 (Base 50)    
Moisture  
Dew Point 20 °F    
Average Humidity 22    
Maximum Humidity 47    
Minimum Humidity 14    
Precipitation  
Precipitation 0.00 in - - ()
Sea Level Pressure  
Sea Level Pressure 30.20 in    
Wind  
Wind Speed 10 mph (ESE)    
Max Wind Speed 23 mph    
Max Gust Speed 30 mph    
Visibility 10 miles    
Events      
Averages and records for this station are not official NWS values.
T = Trace of Precipitation, MM = Missing Value Source: NWS Daily Summary

Daily Weather History Graph

Daily Weather History Graph

Search for Another Location

Airport or City:

Trip Planner

Search our weather history database for the weather conditions in past years. The results will help you decide how hot, cold, wet, or windy it might be!

Date:

Astronomy

May. 13, 2014 Rise Set
Actual Time 6:18 AM MDT 8:04 PM MDT
Civil Twilight 5:51 AM MDT 8:31 PM MDT
Nautical Twilight 5:18 AM MDT 9:03 PM MDT
Astronomical Twilight 4:44 AM MDT 9:38 PM MDT
Moon 7:13 PM MDT (5/13) 5:31 AM MDT (5/13)
Length of Visible Light 14h 40m
Length of Day
13h 46m
Waxing Gibbous, 99% of the Moon is Illuminated
May 13
Waxing Gibbous
May 14
Full
May 21
Last Quarter
May 28
New
Jun 5
First Quarter

Hourly Weather History & Observations

Time (MDT) Temp. Windchill Dew Point Humidity Pressure Visibility Wind Dir Wind Speed Gust Speed Precip Events Conditions
12:15 AM 55.4 °F - 6.8 °F 14% 30.10 in 10.0 mi NNW 5.8 mph - N/A   Clear
12:35 AM 53.6 °F - 8.6 °F 16% 30.10 in 10.0 mi NNW 5.8 mph - N/A   Clear
12:55 AM 53.6 °F - 8.6 °F 16% 30.10 in 10.0 mi NW 4.6 mph - N/A   Clear
1:15 AM 53.6 °F - 8.6 °F 16% 30.10 in 10.0 mi North 6.9 mph - N/A   Clear
1:35 AM 55.4 °F - 8.6 °F 15% 30.10 in 10.0 mi NNW 6.9 mph - N/A   Clear
1:55 AM 53.6 °F - 8.6 °F 16% 30.10 in 10.0 mi NW 5.8 mph - N/A   Clear
2:15 AM 51.8 °F - 8.6 °F 18% 30.10 in 10.0 mi WNW 9.2 mph - N/A   Clear
2:35 AM 51.8 °F - 8.6 °F 18% 30.10 in 10.0 mi West 8.1 mph - N/A   Clear
2:55 AM 50.0 °F - 8.6 °F 19% 30.10 in 10.0 mi WNW 6.9 mph - N/A   Clear
3:15 AM 50.0 °F - 8.6 °F 19% 30.10 in 10.0 mi West 8.1 mph - N/A   Clear
3:35 AM 46.4 °F 42.4 °F 8.6 °F 22% 30.11 in 10.0 mi West 8.1 mph - N/A   Clear
3:55 AM 46.4 °F - 8.6 °F 22% 30.12 in 10.0 mi Calm Calm - N/A   Clear
4:15 AM 42.8 °F 38.6 °F 5.0 °F 21% 30.13 in 10.0 mi SSE 6.9 mph - N/A   Clear
4:35 AM 46.4 °F 41.5 °F 8.6 °F 22% 30.15 in 10.0 mi South 10.4 mph - N/A   Clear
4:55 AM 50.0 °F - 14.0 °F 24% 30.16 in 10.0 mi SSE 11.5 mph - N/A   Clear
5:15 AM 46.4 °F 41.9 °F 15.8 °F 29% 30.17 in 10.0 mi SSE 9.2 mph - N/A   Clear
5:35 AM 44.6 °F 39.7 °F 14.0 °F 29% 30.19 in 10.0 mi SSE 9.2 mph - N/A   Clear
5:55 AM 44.6 °F 39.7 °F 14.0 °F 29% 30.19 in 10.0 mi South 9.2 mph - N/A   Clear
7:15 AM 50.0 °F - 28.4 °F 43% 30.22 in 10.0 mi SSE 13.8 mph - N/A   Clear
7:35 AM 50.0 °F - 30.2 °F 47% 30.23 in 10.0 mi SE 13.8 mph 20.7 mph N/A   Clear
7:55 AM 50.0 °F - 30.2 °F 47% 30.24 in 10.0 mi SE 13.8 mph 20.7 mph N/A   Clear
8:15 AM 53.6 °F - 32.0 °F 44% 30.25 in 10.0 mi ESE 20.7 mph 25.3 mph N/A   Clear
9:55 AM 59.0 °F - 28.4 °F 31% 30.26 in 10.0 mi ESE 20.7 mph 27.6 mph N/A   Clear
10:35 AM 60.8 °F - 28.4 °F 29% 30.27 in 10.0 mi ESE 23.0 mph 29.9 mph N/A   Clear
11:15 AM 62.6 °F - 26.6 °F 26% 30.27 in 10.0 mi ESE 16.1 mph 26.5 mph N/A   Clear
11:35 AM 62.6 °F - 26.6 °F 26% 30.27 in 10.0 mi ESE 17.3 mph 28.8 mph N/A   Clear
11:55 AM 62.6 °F - 26.6 °F 26% 30.27 in 10.0 mi SE 19.6 mph 26.5 mph N/A   Clear
12:15 PM 64.4 °F - 26.6 °F 24% 30.26 in 10.0 mi ESE 18.4 mph 27.6 mph N/A   Clear
12:35 PM 64.4 °F - 26.6 °F 24% 30.26 in 10.0 mi ESE 20.7 mph 27.6 mph N/A   Clear
12:55 PM 66.2 °F - 26.6 °F 23% 30.26 in 10.0 mi East 18.4 mph 26.5 mph N/A   Clear
1:15 PM 66.2 °F - 26.6 °F 23% 30.25 in 10.0 mi ESE 16.1 mph 25.3 mph N/A   Clear
1:35 PM 68.0 °F - 24.8 °F 20% 30.24 in 10.0 mi East 16.1 mph 23.0 mph N/A   Clear
1:55 PM 68.0 °F - 23.0 °F 18% 30.24 in 10.0 mi East 11.5 mph 24.2 mph N/A   Clear
2:15 PM 68.0 °F - 23.0 °F 18% 30.23 in 10.0 mi SSE 13.8 mph 20.7 mph N/A   Clear
2:35 PM 68.0 °F - 23.0 °F 18% 30.23 in 10.0 mi ESE 13.8 mph 25.3 mph N/A   Clear
2:55 PM 69.8 °F - 23.0 °F 17% 30.23 in 10.0 mi East 8.1 mph 20.7 mph N/A   Clear
3:15 PM 69.8 °F - 23.0 °F 17% 30.23 in 10.0 mi ESE 12.7 mph 17.3 mph N/A   Clear
3:35 PM 69.8 °F - 21.2 °F 16% 30.22 in 10.0 mi SE 9.2 mph 19.6 mph N/A   Clear
3:55 PM 69.8 °F - 21.2 °F 16% 30.21 in 10.0 mi SE 8.1 mph - N/A   Clear
4:15 PM 69.8 °F - 21.2 °F 16% 30.20 in 10.0 mi East 12.7 mph 16.1 mph N/A   Clear
4:35 PM 69.8 °F - 21.2 °F 16% 30.20 in 10.0 mi SE 11.5 mph 17.3 mph N/A   Clear
4:55 PM 69.8 °F - 23.0 °F 17% 30.19 in 10.0 mi SSE 11.5 mph 19.6 mph N/A   Clear
5:15 PM 69.8 °F - 21.2 °F 16% 30.19 in 10.0 mi ESE 11.5 mph 23.0 mph N/A   Clear
5:35 PM 69.8 °F - 21.2 °F 16% 30.19 in 10.0 mi SSE 11.5 mph 20.7 mph N/A   Clear
5:55 PM 69.8 °F - 21.2 °F 16% 30.20 in 10.0 mi SE 9.2 mph 18.4 mph N/A   Clear
6:15 PM 69.8 °F - 21.2 °F 16% 30.19 in 10.0 mi ESE 9.2 mph - N/A   Clear
6:35 PM 68.0 °F - 19.4 °F 16% 30.19 in 10.0 mi SE 10.4 mph - N/A   Clear
6:55 PM 68.0 °F - 19.4 °F 16% 30.19 in 10.0 mi SSE 11.5 mph 16.1 mph N/A   Clear
7:15 PM 68.0 °F - 19.4 °F 16% 30.20 in 10.0 mi ESE 9.2 mph - N/A   Clear
7:35 PM 66.2 °F - 19.4 °F 17% 30.21 in 10.0 mi ESE 12.7 mph - N/A   Clear
7:55 PM 64.4 °F - 19.4 °F 18% 30.21 in 10.0 mi ESE 12.7 mph - N/A   Clear
8:15 PM 62.6 °F - 19.4 °F 19% 30.21 in 10.0 mi ESE 10.4 mph - N/A   Clear
8:35 PM 62.6 °F - 19.4 °F 19% 30.23 in 10.0 mi ESE 11.5 mph - N/A   Clear
8:55 PM 62.6 °F - 23.0 °F 22% 30.24 in 10.0 mi ESE 12.7 mph 19.6 mph N/A   Clear
9:15 PM 60.8 °F - 23.0 °F 23% 30.25 in 10.0 mi East 17.3 mph - N/A   Clear
9:35 PM 60.8 °F - 23.0 °F 23% 30.26 in 10.0 mi East 16.1 mph 25.3 mph N/A   Clear
9:55 PM 59.0 °F - 23.0 °F 25% 30.27 in 10.0 mi East 17.3 mph 24.2 mph N/A   Clear
10:15 PM 59.0 °F - 23.0 °F 25% 30.27 in 10.0 mi East 19.6 mph 27.6 mph N/A   Clear
10:35 PM 59.0 °F - 23.0 °F 25% 30.29 in 10.0 mi East 19.6 mph 28.8 mph N/A   Clear
10:55 PM 57.2 °F - 23.0 °F 27% 30.30 in 10.0 mi East 15.0 mph 21.9 mph N/A   Clear
11:15 PM 57.2 °F - 23.0 °F 27% 30.30 in 10.0 mi ESE 18.4 mph 23.0 mph N/A   Clear
11:35 PM 55.4 °F - 23.0 °F 29% 30.31 in 10.0 mi East 21.9 mph 26.5 mph N/A   Clear